Dauntless Aviation
Airports North America United States Colorado
98CO

NCMC HELIPORT

GREELEY, CO, USA

Airport Info
Suggest Updated Information for this Airport

Location

Latitude / Longitude: 40°24'53"N / 104°42'28"W
  40°24.9'N / 104°42.4667'W
  40.4150 / -104.7078
Elevation: 4882 ft. (estimated)
Variation: 12E (1985)
From city: 00 miles N of GREELEY, CO

Operations

Facility use: Private
Sectional chart: DENVER
Control tower: no
Boundary ARTCC: DENVER
FSS: DENVER [1-800-WX-BRIEF]
Segmented circle: no

Communications

Nearby radio navigation aids

VOR radial/distance VOR name Freq Var
GLL 233oT/8.9 GILL VORTAC 114.20 13E
DVV 353oT/31.5 MILE HIGH VORTAC 114.70 11E
BJC 33oT/36.1 JEFFCO VOR/DME 115.40 11E
DEN 357oT/36.2 DENVER VOR/DME 117.90 11E
 
NDB name Hdg/Dist Freq Var ID

Services

Runway Information

Helipad H1

Dimensions: 40 x 40 ft.
Surface: PORTLAND CEMENT CONCRETE,NO SPECIAL SURFACE TREATMENT
 

Additional Remarks

Instrument Procedures

No published instrument procedures available
Topographic chart at:
Satellite photo at:
Airport distance calculator
From:
Weather Reports

METAR

KGXY
4.2nm NE
KGXY 010415Z 13006KT 10SM FEW031 BKN120 18/16 A3025 RMK AO1
KFNL
14.3nm W
KFNL 010415Z AUTO 17004KT 10SM SCT019 04/ A3026 RMK AO1
KLMO
25.8nm SW
KLMO 010413Z AUTO 00000KT 10SM SCT021 SCT050 OVC060 19/16 A3027 RMK AO2 T01850156
KEIK
28.6nm S
KEIK 010414Z AUTO 11006KT 10SM SCT019 SCT070 BKN080 17/14 A3025 RMK AO2 LTG DSNT SW T01730141
KBDU
33.3nm SW
KBDU 010416Z AUTO 06005KT 10SM OVC049 17/14 A3025 RMK AO2 LTG DSNT W
KDEN
35.0nm SE
KDEN 010353Z 14006KT 10SM SCT050 BKN120 BKN200 15/13 A3026 RMK AO2 SLP187 T01500133

TAF

KDEN
35.0nm SE
KDEN 010300Z 0103/0206 09007KT P6SM VCSH BKN070 OVC100 TEMPO 0105/0107 VRB15G25KT 5SM TSRA BKN050CB FM010700 13009KT P6SM VCSH SCT040 OVC070 FM011800 14009KT P6SM SCT040 OVC070 PROB30 0120/0124 VRB15G25KT -TSRA BKN040CB FM020000 03005KT P6SM VCTS BKN070CB
KBJC
35.3nm S
KBJC 010259Z 0103/0124 02010KT P6SM VCSH BKN070 OVC100 TEMPO 0105/0107 VRB15G25KT 5SM TSRA BKN040CB FM010700 12010KT P6SM VCSH SCT040 OVC070 FM011800 12007KT P6SM VCTS SCT040CB OVC070 PROB30 0120/0124 VRB15G25KT -TSRA BKN040CB
Safelog

 

Dauntless Aviation

© 2007-2016 Dauntless Aviation, all rights reserved
Information provided via PilotNav comes from a variety of official and unofficial data sources. As errors are possible, do not use PilotNav for primary flight planning purposes. Verify any information that you receive via PilotNav with current and canonical charts and other official documents. The material in this database is subject to database copyrights held by Dauntless Aviation and may not be copied without the express permission of Dauntless Aviation - licenses for use of part of all of this data are available for purchase; enquire via the Dauntless Aviation helpdesk. A number of mechanisms and markers exist in the database to protect against and identify infringement / copyright. Automated queries against this website are stictly prohibited, and all activity is logged and analyzed.